Погода в Мамакане

Погода в Мамакане : погода сейчас, прогноз погоды и архив. Всё, что Вы хотите узнать о погоде в Мамакане!

Поиск расширенной информации на нашем сайте:

Другие новости

Новости СМИ2

Главная страница сайта

Новости сайта

02.10.2013

Напоминаем, что на нашем новом сайте вы можете получить высокодетализированные прогнозы погоды по пунктам России, СНГ и мира (включающие важные для авиации метеовеличины, такие как направление и скорость ветра, видимость, явления погоды, количество и форма облачности, нижняя и верхняя граница облачности), а также ознакомиться с разнообразными материалами по авиационной метеорологии и подборкой полезных ссылок на эту тему.

Сайт Метеоцентр.Азия посвящён разработке технологий оптимизации авиаметеорологического обслуживания, включая проектирование и перспективное создание нескольких автоматизированных авиаметеорологических систем:
- система выпуска высокодетальных прогностических карт явлений погоды для нижнего воздушного пространства по России и ближнему зарубежью;
- система верификации прогнозов TAF (выпускаемых синоптиками официальных АМСГ РФ и ближнего зарубежья) и AUTOTAF (выпускаемых сайтом Метеоцентр.Азия) - выявление ошибок, онлайн-сопоставление с фактической погодой METAR, автоматическое внесение коррективов в прогнозы при резком отклонении фактической погоды от прогноза, подсчёт оправдываемости прогнозов по элементам и в целом;
- система обработки, анализа и отображения авиаметеорологической информации для применения провайдерами метеорологической информации.

Рекомендуем: Моделирование и окрашивание бровей хной.

Погода в Мамакане - сегодня

Время (UTC), дата Ветер
(°,м/с) 
Видим.   Явления Облачность Т
(°С)
Тd
(°С)
f(%) Тe
(°С)
Pmin
(гПа)
dP
(гПа)
Po
(мм)
O2
(г/м3)
Тmin Tmax R s Состояние
почвы
12 20.06.17 тихо ()   20000 м    8/0 1000 м верхняя 
[Ci]
+27.1 +15.5 49 +37  1008.1  0.1  735  266    +32.8       
15 20.06.17 тихо ()   н/о    8/0 верхняя 
[Ci fib]
+17.6 +13.6 77 +24  1010.4  1.3  736  276           
18 20.06.17 тихо ()   н/о    3/0 верхняя 
[Ci fib]
+11.9 +9.9 88 +13  1012.5  1.5  737  283           
21 20.06.17 тихо ()   20000 м    ясно 
+10.6 +9 90 +11  1013.6  738  285           
00 21.06.17 070 (В) 20000 м  дым  ясно 
+16.8 +11.9 73 +22  1012.6  -0.4  738  278  +9.5        сухая 
03 21.06.17 070 (В) 20000 м  дым  ясно 
+26 +14.5 49 +34  1009.5  -2.1  736  268           
06 21.06.17 250 (З) 20000 м  дым  ясно 
+32.6 +14.6 34 +41  1006.2  -2.7  734  261           
09 21.06.17 280 (З) 20000 м  дым  1/0 верхняя 
[Ci fib]
+34.3 +10.8 24 +37  1004.6  -1.3  733  261           
12 21.06.17 тихо ()   20000 м  дым  ясно 
+28.6 +14.8 43 +38  1004.8  -0.3  733  264    +35.5       
15 21.06.17 тихо ()   н/о    ясно 
+16.7 +14.1 85 +24  1007.5  1.5  734  276           
18 21.06.17 тихо ()   н/о    ясно 
+12.1 +11 93 +15  1009.8  1.8  736  282           
21 21.06.17 080 (В) 20000 м  дым  ясно 
+10.7 +10.1 96 +14  1011.1  736  284           
00 22.06.17 080 (В) 20000 м  дым  ясно 
+17.1 +12.4 74 +24  1010.4  736  277  +9.7        сухая 
03 22.06.17 090 (В) 20000 м  дым  ясно 
+26.4 +15.2 50 +36  1008.1  -1.4  735  267           
06 22.06.17 060 (СВ) 20000 м  дым  4/1 1000 м верхняя 
[Sc|Ci]
+33.8 +13.9 30 +41  1004.3  -2.9  733  260           
09 22.06.17 200 (Ю) 20000 м  дым  9/3 1000 м верхняя 
[Sc|Ci]
+34.6 +11.5 25 +38  1002.9  -1.4  732  260           
12 22.06.17 тихо ()   20000 м  дым  8/0 верхняя 
[Ci fib]
+31.6 +15.3 37 +41  1003.3  0.2  732  261    +36.3       
15 22.06.17 тихо ()   н/о    3/0 верхняя 
[Ci fib]
+20 +13.4 66 +27  1006  1.6  733  273           
18 22.06.17 тихо ()   н/о    3/0 верхняя 
[Ci fib]
+14.4 +11.2 81 +18  1011  0.1  737  280           
21 22.06.17 090 (В) 20000 м  дым  1/0 верхняя 
[Ci fib]
+13.1 +11.8 92 +18  1009  735  280           
00 23.06.17 120 (ЮВ) 20000 м  дым  6/3 1000 м верхняя 
[Sc|Ci]
+19.5 +12 62 +25  1008.4  735  274  +12.7        сухая 
03 23.06.17 110 (В) 20000 м  дым  ясно 
+26.8 +15.1 49 +36  1005.6  -2  734  266           
06 23.06.17 330 (СЗ) 20000 м  дым  9/3 1500 м верхняя 
[Cu hum|Ci]
+33.3 +15.6 35 +44  1003.1  -1.9  732  260           
09 23.06.17 340 (С) 20000 м  дым  10/0 верхняя 
[Cs]
+26.4 +16.8 56 +39  1003.9  0.2  732  265           
12 23.06.17 070 (В) 20000 м  дым  10/0 средняя, верхняя 
[Ac lent|Cs]
+23.3 +16.8 67 +36  1004.8  0.6  733  268    +33.5       
Время (UTC), дата Ветер
(°,м/с) 
Видим.   Явления Облачность Т
(°С)
Тd
(°С)
f(%) Тe
(°С)
Pmin
(гПа)
dP
(гПа)
Po
(мм)
O2
(г/м3)
Тmin Tmax R s Состояние
почвы

Для получения пояснительной информации подведите курсор к названию столбца.

ПОГОДА в Мамакане - архив

Всё, что Вы хотите узнать о погоде в Мамакане - удобно и подробно!

Выберите нужную дату (начиная с 1 января 2015* года) и нажмите кнопку "Найти".
Будут отображены архивные сводки погоды по пункту Мамакан, начиная с указанной даты.


Отображать данные в формате CSV (для использования в таблицах Excel)


Внимание! Наш архив погоды предназначен исключительно для личного некоммерческого использования в познавательных целях. Если Вам необходимы официальные справки о состоянии погоды (для производственных, юридических, коммерческих и т.п. целей), обращайтесь в органы Росгидромета.

*Примечание: данная дата относится к архиву по метеостанциям СССР (Россия, СНГ, Балтия).
Архив по метеостанциям Зарубежной Европы и Азии (кроме Китая) хранится 10 дней, по другим регионам земного шара (Китай, Африка, Америка, Австралия, Океания) - 1 день.

Мамакан - район местоположения метеостанции


Название, широта, долгота, высота метеостанции:
Мамакан 57.82°ш. 114°д. 249 м над ур. моря [Российская Федерация]

Дополнительная информация

В oтличие oт бoльшинства пoгoдных сайтoв мы публикуем пoдрoбную метеoинфoрмацию в детальнoм прoфессиoнальнoм фoрмате.

Характеристики температуры и влажнoсти вoздуха измеряются на высoте 2 м в тени вдали oт зданий и деревьев.
Скoрoсть ветра измеряется на высoте 10 м (на урoвне рoста челoвека скoрoсть ветра ниже в 1.5-2 раза). Если метеoстанция нахoдится в гoрoде или в лесу, тo скoрoсть ветра занижена на 2-4 м/с пo сравнению с oткрытым местoм. Скoрoсть ветра над акватoриями крупных рек и oзёр, а также на вершинах хoлмoв на 2-5 м/с выше, чем в oбычных услoвиях.
Атмoсфернoе давление в разных тoчках местнoсти мoжет значительнo oтличаться oт давления на метеoстанции, в зависимoсти oт услoвий рельефа (при пoдъёме на 10 м давление пoнижается примернo на 1 мм рт.ст.).